Terminal Aerodrome Forecast
Issued by NWS Omaha/Valley, NE

Home | Current Version | Previous Version | Text Only | Print | Product List | Glossary On
Versions: 1 2 3 4 5 6 7 8 9 10 11 12 13 14 15 16 17 18 19 20 21 22 23 24 25 26
000
FTUS43 KOAX 282320
TAFOFK
TAF
KOFK 282320Z 2900/2924 31013G21KT P6SM FEW090
     FM290200 27008KT P6SM VCSH BKN100
     FM290600 29006KT P6SM SCT200
     FM291600 32015G25KT P6SM FEW250=

USA.gov is the U.S. government's official web portal to all federal, state and local government web resources and services.